Time,TemperatureF,DewpointF,PressureIn,WindDirection,WindDirectionDegrees,WindSpeedMPH,WindSpeedGustMPH,Humidity,HourlyPrecipIn,Conditions,Clouds,dailyrainin,SolarRadiationWatts/m^2,SoftwareType,DateUTC
2013-02-01 00:14:00,47.8,37.0,30.25,North,10,5.0,9.0,66,0.00,,,0.00,0,weatherlink.com 1.10,2013-02-01 05:14:00,
2013-02-01 00:29:00,47.9,36.0,30.24,North,350,1.0,5.0,64,0.00,,,0.00,0,weatherlink.com 1.10,2013-02-01 05:29:00,
2013-02-01 00:44:00,47.7,36.0,30.24,North,360,2.0,10.0,63,0.00,,,0.00,0,weatherlink.com 1.10,2013-02-01 05:44:00,
2013-02-01 00:59:00,47.7,35.0,30.25,NNE,12,5.0,10.0,61,0.00,,,0.00,0,weatherlink.com 1.10,2013-02-01 05:59:00,
2013-02-01 01:14:00,47.5,34.0,30.25,NW,321,7.0,8.0,60,0.00,,,0.00,0,weatherlink.com 1.10,2013-02-01 06:14:00,
2013-02-01 01:29:00,47.8,33.0,30.25,NNE,13,5.0,10.0,58,0.00,,,0.00,0,weatherlink.com 1.10,2013-02-01 06:29:00,
2013-02-01 01:44:00,47.8,34.0,30.25,North,5,3.0,10.0,59,0.00,,,0.00,0,weatherlink.com 1.10,2013-02-01 06:44:00,
2013-02-01 01:59:00,47.2,34.0,30.25,North,355,3.0,6.0,61,0.00,,,0.00,0,weatherlink.com 1.10,2013-02-01 06:59:00,
2013-02-01 02:14:00,46.3,35.0,30.25,North,5,4.0,6.0,64,0.00,,,0.00,0,weatherlink.com 1.10,2013-02-01 07:14:00,
2013-02-01 02:29:00,45.6,35.0,30.25,North,9,4.0,7.0,66,0.00,,,0.00,0,weatherlink.com 1.10,2013-02-01 07:29:00,
2013-02-01 02:44:00,45.0,35.0,30.25,North,349,2.0,6.0,69,0.00,,,0.00,0,weatherlink.com 1.10,2013-02-01 07:44:00,
2013-02-01 03:00:00,44.1,36.0,30.25,NNW,333,3.0,5.0,72,0.00,,,0.00,0,weatherlink.com 1.10,2013-02-01 08:00:00,
2013-02-01 03:15:00,43.5,36.0,30.25,North,355,3.0,6.0,74,0.00,,,0.00,0,weatherlink.com 1.10,2013-02-01 08:15:00,
2013-02-01 03:30:00,43.1,36.0,30.25,NNE,18,2.0,4.0,75,0.00,,,0.00,0,weatherlink.com 1.10,2013-02-01 08:30:00,
2013-02-01 03:45:00,42.6,36.0,30.25,North,355,2.0,3.0,78,0.00,,,0.00,0,weatherlink.com 1.10,2013-02-01 08:45:00,
2013-02-01 04:00:00,42.1,36.0,30.25,NNW,348,1.0,3.0,78,0.00,,,0.00,0,weatherlink.com 1.10,2013-02-01 09:00:00,
2013-02-01 04:15:00,41.7,36.0,30.25,NNW,337,3.0,4.0,79,0.00,,,0.00,0,weatherlink.com 1.10,2013-02-01 09:15:00,
2013-02-01 04:30:00,41.7,36.0,30.25,North,355,3.0,5.0,79,0.00,,,0.00,0,weatherlink.com 1.10,2013-02-01 09:30:00,
2013-02-01 04:45:00,42.2,35.0,30.25,North,355,1.0,6.0,76,0.00,,,0.00,0,weatherlink.com 1.10,2013-02-01 09:45:00,
2013-02-01 05:00:00,43.0,35.0,30.27,NNW,347,5.0,8.0,73,0.00,,,0.00,0,weatherlink.com 1.10,2013-02-01 10:00:00,
2013-02-01 05:15:00,43.6,34.0,30.27,North,355,5.0,10.0,70,0.00,,,0.00,0,weatherlink.com 1.10,2013-02-01 10:15:00,
2013-02-01 05:30:00,43.8,34.0,30.27,North,360,4.0,11.0,69,0.00,,,0.00,0,weatherlink.com 1.10,2013-02-01 10:30:00,
2013-02-01 05:45:00,43.7,35.0,30.28,North,350,3.0,8.0,71,0.00,,,0.00,0,weatherlink.com 1.10,2013-02-01 10:45:00,
2013-02-01 06:00:00,43.4,35.0,30.28,North,360,4.0,7.0,71,0.00,,,0.00,0,weatherlink.com 1.10,2013-02-01 11:00:00,
2013-02-01 06:15:00,43.3,35.0,30.29,North,351,5.0,7.0,72,0.00,,,0.00,0,weatherlink.com 1.10,2013-02-01 11:15:00,
2013-02-01 06:30:00,43.3,34.0,30.30,NNW,348,3.0,6.0,71,0.00,,,0.00,0,weatherlink.com 1.10,2013-02-01 11:30:00,
2013-02-01 06:45:00,43.1,35.0,30.31,North,5,2.0,6.0,72,0.00,,,0.00,0,weatherlink.com 1.10,2013-02-01 11:45:00,
2013-02-01 07:00:00,43.0,35.0,30.31,NNW,329,5.0,6.0,72,0.00,,,0.00,0,weatherlink.com 1.10,2013-02-01 12:00:00,
2013-02-01 07:15:00,43.1,34.0,30.32,North,355,5.0,8.0,71,0.00,,,0.00,5,weatherlink.com 1.10,2013-02-01 12:15:00,
2013-02-01 07:30:00,43.4,34.0,30.32,North,360,4.0,8.0,70,0.00,,,0.00,12,weatherlink.com 1.10,2013-02-01 12:30:00,
2013-02-01 07:45:00,43.7,34.0,30.32,NNE,22,4.0,8.0,69,0.00,,,0.00,16,weatherlink.com 1.10,2013-02-01 12:45:00,
2013-02-01 08:00:00,44.2,34.0,30.33,North,11,4.0,10.0,68,0.00,,,0.00,21,weatherlink.com 1.10,2013-02-01 13:00:00,
2013-02-01 08:15:00,45.2,34.0,30.33,North,5,4.0,10.0,66,0.00,,,0.00,25,weatherlink.com 1.10,2013-02-01 13:15:00,
2013-02-01 08:30:00,46.7,35.0,30.34,North,11,7.0,11.0,64,0.00,,,0.00,40,weatherlink.com 1.10,2013-02-01 13:30:00,
2013-02-01 08:45:00,48.0,35.0,30.34,NNE,15,5.0,11.0,62,0.00,,,0.00,60,weatherlink.com 1.10,2013-02-01 13:45:00,
2013-02-01 09:01:00,49.4,36.0,30.35,North,5,5.0,13.0,61,0.00,,,0.00,35,weatherlink.com 1.10,2013-02-01 14:01:00,
2013-02-01 09:15:00,50.5,38.0,30.36,NNE,13,3.0,9.0,62,0.00,,,0.00,83,weatherlink.com 1.10,2013-02-01 14:15:00,
2013-02-01 09:31:00,53.3,39.0,30.36,North,10,8.0,10.0,58,0.00,,,0.00,487,weatherlink.com 1.10,2013-02-01 14:31:00,
2013-02-01 09:46:00,55.8,39.0,30.37,NNE,15,6.0,12.0,54,0.00,,,0.00,536,weatherlink.com 1.10,2013-02-01 14:46:00,
2013-02-01 10:01:00,58.7,41.0,30.36,NNW,344,9.0,14.0,52,0.00,,,0.00,577,weatherlink.com 1.10,2013-02-01 15:01:00,
2013-02-01 10:16:00,61.0,43.0,30.37,North,5,8.0,12.0,51,0.00,,,0.00,621,weatherlink.com 1.10,2013-02-01 15:16:00,
2013-02-01 10:31:00,62.7,43.0,30.36,NNE,17,5.0,11.0,49,0.00,,,0.00,654,weatherlink.com 1.10,2013-02-01 15:31:00,
2013-02-01 10:46:00,64.3,44.0,30.36,NW,319,10.0,13.0,48,0.00,,,0.00,689,weatherlink.com 1.10,2013-02-01 15:46:00,
2013-02-01 11:01:00,65.5,43.0,30.37,North,5,5.0,13.0,45,0.00,,,0.00,715,weatherlink.com 1.10,2013-02-01 16:01:00,
2013-02-01 11:16:00,66.4,45.0,30.37,North,5,5.0,12.0,46,0.00,,,0.00,738,weatherlink.com 1.10,2013-02-01 16:16:00,
2013-02-01 11:31:00,67.9,45.0,30.36,ESE,111,3.0,14.0,44,0.00,,,0.00,756,weatherlink.com 1.10,2013-02-01 16:31:00,
2013-02-01 11:46:00,68.2,47.0,30.36,ENE,74,1.0,10.0,47,0.00,,,0.00,766,weatherlink.com 1.10,2013-02-01 16:46:00,
2013-02-01 12:01:00,68.0,47.0,30.35,NE,54,3.0,15.0,48,0.00,,,0.00,779,weatherlink.com 1.10,2013-02-01 17:01:00,
2013-02-01 12:16:00,67.4,45.0,30.36,NNW,346,2.0,10.0,45,0.00,,,0.00,786,weatherlink.com 1.10,2013-02-01 17:16:00,
2013-02-01 12:31:00,68.0,46.0,30.35,NNW,346,2.0,12.0,45,0.00,,,0.00,788,weatherlink.com 1.10,2013-02-01 17:31:00,
2013-02-01 12:46:00,68.0,46.0,30.34,ENE,62,1.0,9.0,45,0.00,,,0.00,780,weatherlink.com 1.10,2013-02-01 17:46:00,
2013-02-01 13:01:00,68.0,45.0,30.33,North,9,3.0,10.0,44,0.00,,,0.00,773,weatherlink.com 1.10,2013-02-01 18:01:00,
2013-02-01 13:16:00,67.8,45.0,30.33,North,360,3.0,11.0,44,0.00,,,0.00,773,weatherlink.com 1.10,2013-02-01 18:16:00,
2013-02-01 13:32:00,68.5,43.0,30.32,NNE,19,3.0,9.0,40,0.00,,,0.00,756,weatherlink.com 1.10,2013-02-01 18:32:00,
2013-02-01 13:46:00,69.1,40.0,30.31,North,5,3.0,6.0,35,0.00,,,0.00,744,weatherlink.com 1.10,2013-02-01 18:46:00,
2013-02-01 14:01:00,69.0,41.0,30.31,NE,46,2.0,7.0,36,0.00,,,0.00,719,weatherlink.com 1.10,2013-02-01 19:01:00,
2013-02-01 14:16:00,69.3,40.0,30.31,North,9,4.0,11.0,35,0.00,,,0.00,698,weatherlink.com 1.10,2013-02-01 19:16:00,
2013-02-01 14:31:00,68.5,37.0,30.30,East,82,2.0,10.0,31,0.00,,,0.00,670,weatherlink.com 1.10,2013-02-01 19:31:00,
2013-02-01 14:47:00,67.8,36.0,30.30,ENE,63,1.0,9.0,31,0.00,,,0.00,636,weatherlink.com 1.10,2013-02-01 19:47:00,
2013-02-01 15:02:00,67.4,33.0,30.30,SE,143,2.0,8.0,28,0.00,,,0.00,151,weatherlink.com 1.10,2013-02-01 20:02:00,
2013-02-01 15:16:00,66.9,35.0,30.29,NNE,20,2.0,6.0,31,0.00,,,0.00,35,weatherlink.com 1.10,2013-02-01 20:16:00,
2013-02-01 15:31:00,67.2,34.0,30.30,North,360,5.0,10.0,29,0.00,,,0.00,33,weatherlink.com 1.10,2013-02-01 20:31:00,
2013-02-01 15:46:00,68.1,27.0,30.30,ENE,72,3.0,10.0,21,0.00,,,0.00,32,weatherlink.com 1.10,2013-02-01 20:46:00,
2013-02-01 16:01:00,67.8,30.0,30.29,NE,53,2.0,7.0,24,0.00,,,0.00,32,weatherlink.com 1.10,2013-02-01 21:01:00,
2013-02-01 16:16:00,66.9,30.0,30.29,NE,44,0.0,4.0,25,0.00,,,0.00,30,weatherlink.com 1.10,2013-02-01 21:16:00,
2013-02-01 16:32:00,66.5,32.0,30.30,North,355,4.0,4.0,28,0.00,,,0.00,28,weatherlink.com 1.10,2013-02-01 21:32:00,
2013-02-01 16:46:00,66.1,32.0,30.30,East,97,0.0,4.0,28,0.00,,,0.00,26,weatherlink.com 1.10,2013-02-01 21:46:00,
2013-02-01 17:02:00,65.2,35.0,30.29,SE,135,2.0,2.0,33,0.00,,,0.00,25,weatherlink.com 1.10,2013-02-01 22:02:00,
2013-02-01 17:17:00,64.1,36.0,30.29,ESE,119,1.0,4.0,35,0.00,,,0.00,19,weatherlink.com 1.10,2013-02-01 22:17:00,
2013-02-01 17:32:00,63.1,39.0,30.29,SE,124,2.0,2.0,41,0.00,,,0.00,14,weatherlink.com 1.10,2013-02-01 22:32:00,
2013-02-01 17:47:00,61.6,40.0,30.29,ESE,118,0.0,2.0,46,0.00,,,0.00,9,weatherlink.com 1.10,2013-02-01 22:47:00,
2013-02-01 18:02:00,59.4,41.0,30.29,ESE,118,0.0,0.0,51,0.00,,,0.00,0,weatherlink.com 1.10,2013-02-01 23:02:00,
2013-02-01 18:17:00,57.8,42.0,30.30,ESE,118,0.0,0.0,57,0.00,,,0.00,0,weatherlink.com 1.10,2013-02-01 23:17:00,
2013-02-01 18:32:00,55.8,42.0,30.29,ESE,118,0.0,0.0,60,0.00,,,0.00,0,weatherlink.com 1.10,2013-02-01 23:32:00,
2013-02-01 18:47:00,54.2,42.0,30.30,ESE,118,0.0,0.0,64,0.00,,,0.00,0,weatherlink.com 1.10,2013-02-01 23:47:00,
2013-02-01 19:02:00,52.9,43.0,30.29,ESE,118,0.0,0.0,68,0.00,,,0.00,0,weatherlink.com 1.10,2013-02-02 00:02:00,
2013-02-01 19:17:00,51.9,42.0,30.29,ESE,118,0.0,0.0,70,0.00,,,0.00,0,weatherlink.com 1.10,2013-02-02 00:17:00,
2013-02-01 19:32:00,51.2,42.0,30.30,ESE,118,0.0,0.0,72,0.00,,,0.00,0,weatherlink.com 1.10,2013-02-02 00:32:00,
2013-02-01 19:47:00,50.4,43.0,30.29,ESE,118,0.0,0.0,77,0.00,,,0.00,0,weatherlink.com 1.10,2013-02-02 00:47:00,
2013-02-01 20:02:00,49.6,43.0,30.30,ESE,118,0.0,0.0,78,0.00,,,0.00,0,weatherlink.com 1.10,2013-02-02 01:02:00,
2013-02-01 20:17:00,48.6,42.0,30.30,ESE,118,0.0,0.0,79,0.00,,,0.00,0,weatherlink.com 1.10,2013-02-02 01:17:00,
2013-02-01 20:32:00,47.7,42.0,30.30,ESE,118,0.0,1.0,80,0.00,,,0.00,0,weatherlink.com 1.10,2013-02-02 01:32:00,
2013-02-01 20:47:00,46.7,42.0,30.30,ESE,118,1.0,1.0,83,0.00,,,0.00,0,weatherlink.com 1.10,2013-02-02 01:47:00,
2013-02-01 21:02:00,45.9,42.0,30.30,ESE,118,0.0,0.0,85,0.00,,,0.00,0,weatherlink.com 1.10,2013-02-02 02:02:00,
2013-02-01 21:17:00,45.1,41.0,30.30,ESE,118,0.0,0.0,85,0.00,,,0.00,0,weatherlink.com 1.10,2013-02-02 02:17:00,
2013-02-01 21:32:00,44.3,40.0,30.31,ESE,118,0.0,1.0,86,0.00,,,0.00,0,weatherlink.com 1.10,2013-02-02 02:32:00,
2013-02-01 21:47:00,43.7,40.0,30.31,ESE,118,0.0,0.0,87,0.00,,,0.00,0,weatherlink.com 1.10,2013-02-02 02:47:00,
2013-02-01 22:02:00,43.4,40.0,30.32,ESE,118,0.0,0.0,88,0.00,,,0.00,0,weatherlink.com 1.10,2013-02-02 03:02:00,
2013-02-01 22:17:00,42.9,40.0,30.32,ESE,118,0.0,0.0,89,0.00,,,0.00,0,weatherlink.com 1.10,2013-02-02 03:17:00,
2013-02-01 22:32:00,42.5,40.0,30.32,ESE,118,0.0,0.0,89,0.00,,,0.00,0,weatherlink.com 1.10,2013-02-02 03:32:00,
2013-02-01 22:47:00,42.0,40.0,30.32,ESE,118,0.0,0.0,91,0.00,,,0.00,0,weatherlink.com 1.10,2013-02-02 03:47:00,
2013-02-01 23:02:00,41.6,39.0,30.31,ESE,118,0.0,0.0,91,0.00,,,0.00,0,weatherlink.com 1.10,2013-02-02 04:02:00,
2013-02-01 23:17:00,41.3,39.0,30.31,ESE,118,0.0,0.0,92,0.00,,,0.00,0,weatherlink.com 1.10,2013-02-02 04:17:00,
2013-02-01 23:32:00,40.9,39.0,30.30,ESE,118,0.0,0.0,92,0.00,,,0.00,0,weatherlink.com 1.10,2013-02-02 04:32:00,
2013-02-01 23:47:00,40.6,39.0,30.31,ESE,118,0.0,0.0,93,0.00,,,0.00,0,weatherlink.com 1.10,2013-02-02 04:47:00,